St. Cloud, MN

12:09 PM CDT on September 25, 2017 (GMT -0500)
Saint Cloud Regional

Weather History for KSTC - April, 2014

Change the Weather History Date:

Tuesday, April 29, 2014

  Actual Average Record
Temperature  
Mean Temperature 42 °F 51 °F  
Max Temperature 46 °F 63 °F 86 °F (1952)
Min Temperature 37 °F 39 °F 18 °F (1958)
Degree Days  
Heating Degree Days 23 14  
Month to date heating degree days 693 604  
Since 1 July heating degree days 9209 8154  
Cooling Degree Days 0 0  
Month to date cooling degree days 0 0  
Year to date cooling degree days 0 0  
Moisture  
Dew Point 32 °F    
Average Humidity 66    
Maximum Humidity 79    
Minimum Humidity 53    
Precipitation  
Precipitation 0.11 in 0.11 in 1.24 in (2006)
Month to date precipitation 5.88 2.47  
Year to date precipitation 9.59 5.26  
Snow  
Snow T in 0.10 in 3.00 in (1950)
Month to date snowfall 12.0 3.0  
Since 1 July snowfall 75.5 45.7  
Snow Depth 0.00 in    
Sea Level Pressure  
Sea Level Pressure 29.78 in    
Wind  
Wind Speed 15 mph (NNE)    
Max Wind Speed 24 mph    
Max Gust Speed 35 mph    
Visibility 9 miles    
Events Rain , Snow    
T = Trace of Precipitation, MM = Missing Value Source: NWS Daily Summary

Daily Weather History Graph

Daily Weather History Graph

Search for Another Location

Airport or City:

Trip Planner

Search our weather history database for the weather conditions in past years. The results will help you decide how hot, cold, wet, or windy it might be!

Date:

Astronomy

Apr. 29, 2014 Rise Set
Actual Time 6:07 AM CDT 8:20 PM CDT
Civil Twilight 5:34 AM CDT 8:53 PM CDT
Nautical Twilight 4:54 AM CDT 9:33 PM CDT
Astronomical Twilight 4:09 AM CDT 10:19 PM CDT
Moon 6:26 AM CDT (4/29) 9:02 PM CDT (4/29)
Length of Visible Light 15h 18m
Length of Day
14h 13m
New Moon, 0% of the Moon is Illuminated
Apr 29
New Moon
May 6
First Quarter
May 14
Full
May 21
Last Quarter
May 28
New

Hourly Weather History & Observations

Time (CDT) Temp. Windchill Dew Point Humidity Pressure Visibility Wind Dir Wind Speed Gust Speed Precip Events Conditions
12:53 AM 42.1 °F 34.9 °F 30.0 °F 62% 29.77 in 10.0 mi NE 13.8 mph 20.7 mph N/A   Overcast
1:53 AM 41.0 °F 33.5 °F 30.0 °F 65% 29.77 in 10.0 mi NE 13.8 mph 21.9 mph N/A   Overcast
2:53 AM 41.0 °F 33.5 °F 30.9 °F 67% 29.76 in 10.0 mi NE 13.8 mph 23.0 mph N/A   Overcast
3:53 AM 42.1 °F 34.5 °F 30.0 °F 62% 29.75 in 10.0 mi NE 15.0 mph 23.0 mph N/A   Overcast
4:53 AM 41.0 °F 33.5 °F 30.0 °F 65% 29.76 in 10.0 mi NE 13.8 mph 24.2 mph N/A   Overcast
5:53 AM 39.0 °F 30.3 °F 32.0 °F 76% 29.77 in 6.0 mi NE 16.1 mph 27.6 mph 0.00 in Rain Light Rain
6:05 AM 37.4 °F 29.3 °F 33.8 °F 87% 29.72 in 8.0 mi NE 12.7 mph 23.0 mph 0.00 in Rain Light Rain
6:33 AM 37.4 °F 29.3 °F 32.0 °F 81% 29.73 in 10.0 mi NE 12.7 mph 21.9 mph 0.01 in   Overcast
6:53 AM 37.9 °F 29.6 °F 30.0 °F 73% 29.78 in 10.0 mi NE 13.8 mph 25.3 mph 0.01 in   Overcast
7:05 AM 39.2 °F 30.5 °F 28.4 °F 65% 29.73 in 10.0 mi NE 16.1 mph 23.0 mph N/A   Overcast
7:53 AM 39.0 °F 30.6 °F 28.9 °F 67% 29.79 in 9.0 mi NE 15.0 mph 28.8 mph N/A   Overcast
8:26 AM 37.4 °F 27.2 °F 30.2 °F 75% 29.74 in 9.0 mi NE 19.6 mph 26.5 mph 0.00 in Rain Light Rain
8:53 AM 37.0 °F 29.3 °F 30.9 °F 79% 29.79 in 8.0 mi NE 11.5 mph 20.7 mph 0.00 in Snow Light Snow
9:53 AM 37.9 °F 30.0 °F 30.9 °F 76% 29.79 in 5.0 mi NNE 12.7 mph 23.0 mph 0.00 in Snow Light Snow
10:33 AM 39.2 °F 31.2 °F 32.0 °F 75% 29.74 in 8.0 mi NE 13.8 mph 21.9 mph 0.02 in Rain Light Rain
10:53 AM 39.9 °F 32.1 °F 32.0 °F 73% 29.79 in 10.0 mi NNE 13.8 mph 21.9 mph 0.02 in Rain Light Rain
11:14 AM 39.2 °F 29.8 °F 30.2 °F 70% 29.74 in 10.0 mi NNE 18.4 mph 27.6 mph 0.00 in Rain Light Rain
11:24 AM 39.2 °F 30.5 °F 30.2 °F 70% 29.74 in 10.0 mi NE 16.1 mph 25.3 mph 0.00 in Rain Light Rain
11:34 AM 39.2 °F 30.5 °F 30.2 °F 70% 29.74 in 9.0 mi NE 16.1 mph 27.6 mph 0.00 in Rain Light Rain
11:53 AM 39.9 °F 31.4 °F 32.0 °F 73% 29.78 in 5.0 mi NNE 16.1 mph 29.9 mph 0.00 in Rain Light Rain
12:15 PM 41.0 °F 33.5 °F 33.8 °F 76% 29.73 in 7.0 mi NNE 13.8 mph 21.9 mph 0.01 in   Overcast
12:53 PM 39.9 °F 32.1 °F 33.1 °F 77% 29.79 in 8.0 mi NNE 13.8 mph 23.0 mph 0.01 in Rain Light Rain
1:53 PM 43.0 °F 35.7 °F 28.9 °F 58% 29.79 in 10.0 mi NNE 15.0 mph 24.2 mph 0.00 in   Overcast
2:53 PM 45.0 °F 37.9 °F 30.9 °F 58% 29.79 in 10.0 mi NNE 16.1 mph 25.3 mph N/A   Overcast
3:53 PM 46.0 °F 39.3 °F 30.9 °F 56% 29.79 in 10.0 mi NNE 16.1 mph 31.1 mph N/A   Overcast
4:53 PM 44.1 °F 36.5 °F 33.1 °F 65% 29.82 in 9.0 mi NNE 17.3 mph 28.8 mph 0.00 in Rain Light Rain
5:02 PM 42.8 °F 33.5 °F 33.8 °F 70% 29.78 in 10.0 mi NE 23.0 mph 29.9 mph 0.00 in Rain Light Rain
5:53 PM 42.1 °F 34.9 °F 35.1 °F 76% 29.85 in 10.0 mi NNE 13.8 mph 25.3 mph 0.02 in   Overcast
6:01 PM 42.8 °F 34.8 °F 35.6 °F 76% 29.80 in 10.0 mi NE 17.3 mph 24.2 mph N/A   Overcast
6:12 PM 41.0 °F 33.9 °F 35.6 °F 81% 29.80 in 9.0 mi NNE 12.7 mph 27.6 mph 0.00 in Rain Light Rain
6:53 PM 39.9 °F 32.5 °F 35.1 °F 83% 29.86 in 10.0 mi North 12.7 mph 18.4 mph 0.00 in Rain Light Rain
7:53 PM 42.1 °F 34.9 °F 35.1 °F 76% 29.85 in 10.0 mi North 13.8 mph 25.3 mph 0.01 in Rain Light Rain
8:53 PM 41.0 °F 32.2 °F 35.1 °F 79% 29.86 in 10.0 mi North 18.4 mph 27.6 mph 0.00 in Rain Light Rain
9:53 PM 41.0 °F 32.5 °F 35.1 °F 79% 29.86 in 9.0 mi NNE 17.3 mph 26.5 mph 0.02 in Rain Light Rain
10:53 PM 39.9 °F 31.8 °F 34.0 °F 79% 29.86 in 10.0 mi North 15.0 mph 24.2 mph 0.01 in Rain Light Rain
11:53 PM 39.9 °F 30.8 °F 34.0 °F 79% 29.84 in 10.0 mi North 18.4 mph 25.3 mph 0.01 in Rain Light Rain